DW1105 Weather Reports


Display with metric or nautical units.
time (UTC)temp
F
wind
direction
speed
MPH
gust
MPH
rain 1hr
in
rain 24hr
in
rain mn
in
humidity
%
barometer
mb
20260905145826 74 303 2.0 8.0 0.00 0.01 0.00 71 1011.2
20260905145324 73 22 4.0 8.0 0.00 0.01 0.00 70 1011.2
20260905144821 72 22 2.0 11.0 0.00 0.01 0.00 69 1011.2
20260905144318 72 61 5.0 11.0 0.00 0.01 0.00 69 1011.2
20260905143815 72 349 2.0 9.0 0.00 0.01 0.00 69 1011.2
20260905143312 72 28 2.0 9.0 0.00 0.01 0.00 70 1011.2
20260905142812 72 47 4.0 12.0 0.00 0.01 0.00 71 1011.0
20260905142329 72 14 5.0 12.0 0.00 0.01 0.00 71 1011.1
20260905141826 72 346 3.0 10.0 0.00 0.01 0.00 72 1011.1
20260905141324 72 333 3.0 9.0 0.00 0.01 0.00 72 1011.1
20260905140821 71 30 4.0 15.0 0.00 0.01 0.00 70 1011.1
20260905140318 71 256 4.0 9.0 0.00 0.01 0.00 73 1011.1
20260905135814 71 302 4.0 11.0 0.00 0.01 0.00 72 1011.1
20260905135316 71 321 5.0 11.0 0.00 0.01 0.00 72 1011.1
20260905134813 71 326 4.0 10.0 0.00 0.01 0.00 72 1011.0
20260905134310 71 332 4.0 10.0 0.00 0.01 0.00 74 1011.0
20260905133827 71 355 2.0 11.0 0.00 0.01 0.00 73 1010.9
20260905133324 71 279 4.0 11.0 0.00 0.01 0.00 74 1011.1
20260905132820 70 23 3.0 11.0 0.00 0.01 0.00 73 1011.0
20260905132318 71 296 2.0 11.0 0.00 0.01 0.00 74 1011.0
20260905131819 70 355 5.0 11.0 0.00 0.01 0.00 74 1011.0
20260905131316 70 331 4.0 10.0 0.00 0.01 0.00 75 1011.2
20260905130813 70 321 3.0 11.0 0.00 0.01 0.00 75 1011.0
20260905130310 70 329 6.0 11.0 0.00 0.01 0.00 75 1011.1
20260905125826 70 14 4.0 11.0 0.00 0.01 0.00 76 1011.1
20260905125324 70 324 4.0 11.0 0.00 0.01 0.00 76 1011.2
20260905124821 70 320 3.0 5.0 0.00 0.01 0.00 77 1011.4
20260905124321 69 348 2.0 8.0 0.00 0.01 0.00 78 1011.3
20260905123818 69 355 4.0 8.0 0.00 0.01 0.00 77 1011.5
20260905123315 69 319 3.0 5.0 0.00 0.01 0.00 77 1011.4
20260905122811 69 339 2.0 6.0 0.00 0.01 0.00 77 1011.6
20260905122329 69 325 3.0 6.0 0.00 0.01 0.00 78 1011.5
20260905121825 68 308 3.0 9.0 0.00 0.01 0.00 79 1011.6
20260905121322 68 318 4.0 10.0 0.00 0.01 0.00 78 1011.6
20260905120823 68 321 4.0 9.0 0.00 0.01 0.00 79 1011.6
20260905120319 68 355 3.0 9.0 0.00 0.01 0.00 79 1011.6
20260905115817 68 328 3.0 6.0 0.00 0.01 0.00 80 1011.6
20260905115315 67 334 3.0 9.0 0.00 0.01 0.00 81 1011.5
20260905114811 67 298 3.0 6.0 0.00 0.01 0.00 80 1011.6
20260905114329 67 325 2.0 5.0 0.00 0.01 0.00 81 1011.5
20260905113825 67 360 2.0 3.0 0.00 0.01 0.00 82 1011.3
20260905113326 67 17 2.0 3.0 0.00 0.01 0.00 82 1011.2
20260905112823 66 348 1.0 3.0 0.00 0.01 0.00 82 1011.2
20260905112321 66 336 1.0 3.0 0.00 0.01 0.00 83 1011.1
20260905111817 65 5 1.0 2.0 0.00 0.01 0.00 84 1011.0
20260905111315 65 339 1.0 2.0 0.00 0.01 0.00 84 1010.9
20260905110812 65 244 0.0 2.0 0.00 0.01 0.00 84 1010.8
20260905110313 65 299 1.0 2.0 0.00 0.01 0.00 83 1010.7
20260905105810 65 271 0.0 3.0 0.00 0.01 0.00 83 1010.7
20260905105326 65 279 1.0 3.0 0.00 0.01 0.00 83 1010.5
20260905104823 65 244 0.0 2.0 0.00 0.01 0.00 83 1010.4
20260905104321 65 309 0.0 3.0 0.00 0.01 0.00 82 1010.5
20260905103818 66 272 0.0 3.0 0.00 0.01 0.00 82 1010.4
20260905103315 66 338 1.0 3.0 0.00 0.01 0.00 82 1010.5
20260905102815 66 297 0.0 1.0 0.00 0.01 0.00 81 1010.6
20260905102313 66 297 0.0 1.0 0.00 0.01 0.00 80 1010.6
20260905101829 66 297 0.0 2.0 0.00 0.01 0.00 80 1010.5
20260905101326 66 297 1.0 2.0 0.00 0.01 0.00 79 1010.4
20260905100822 67 232 0.0 2.0 0.00 0.01 0.00 79 1010.4
20260905100319 67 272 0.0 2.0 0.00 0.01 0.00 78 1010.4
20260905095816 67 325 1.0 4.0 0.00 0.01 0.00 78 1010.3
20260905095317 67 5 1.0 4.0 0.00 0.01 0.00 78 1010.4
20260905094814 67 329 1.0 4.0 0.00 0.01 0.00 78 1010.3
20260905094312 67 311 1.0 5.0 0.00 0.01 0.00 78 1010.3
20260905093828 67 327 1.0 5.0 0.00 0.01 0.00 77 1010.3
20260905093326 68 271 1.0 8.0 0.00 0.01 0.00 78 1010.3
20260905092822 68 296 3.0 8.0 0.00 0.01 0.00 78 1010.3
20260905092319 68 328 2.0 5.0 0.00 0.01 0.00 77 1010.2
20260905091820 68 301 0.0 4.0 0.00 0.01 0.00 77 1010.2
20260905091316 68 285 1.0 4.0 0.00 0.01 0.00 76 1010.3
20260905090813 68 320 1.0 4.0 0.00 0.01 0.00 76 1010.3
20260905090330 68 332 2.0 4.0 0.00 0.01 0.00 75 1010.2
20260905085825 69 360 1.0 4.0 0.00 0.01 0.00 75 1010.2
20260905085324 69 332 1.0 4.0 0.00 0.01 0.00 75 1010.2
20260905084820 69 323 1.0 4.0 0.00 0.01 0.00 75 1010.2
20260905084320 69 323 2.0 6.0 0.00 0.01 0.00 75 1010.2
20260905083817 69 335 2.0 6.0 0.00 0.01 0.00 74 1010.2
20260905083314 69 325 2.0 4.0 0.00 0.01 0.00 75 1010.2
20260905082811 69 331 1.0 3.0 0.00 0.01 0.00 74 1010.2
20260905082329 69 280 1.0 3.0 0.00 0.01 0.00 74 1010.2
20260905081825 69 300 1.0 4.0 0.00 0.01 0.00 74 1010.3
20260905081322 69 335 1.0 5.0 0.00 0.01 0.00 74 1010.3
20260905080822 69 338 2.0 5.0 0.00 0.01 0.00 73 1010.2
20260905080319 70 344 1.0 4.0 0.00 0.01 0.00 75 1010.2
20260905075815 70 325 1.0 8.0 0.00 0.01 0.00 73 1010.3
20260905075313 70 5 1.0 5.0 0.00 0.01 0.00 73 1010.2
20260905074830 70 287 2.0 5.0 0.00 0.01 0.00 72 1010.2
20260905074325 70 17 2.0 6.0 0.00 0.01 0.00 72 1010.2
20260905073821 70 301 3.0 6.0 0.00 0.01 0.00 72 1010.2
20260905073322 70 287 0.0 6.0 0.00 0.01 0.00 71 1010.2
20260905072819 70 252 2.0 5.0 0.00 0.01 0.00 71 1010.2
20260905072317 70 337 2.0 5.0 0.00 0.01 0.00 71 1010.3
20260905071814 70 331 1.0 5.0 0.00 0.01 0.00 71 1010.3
20260905071330 70 17 1.0 4.0 0.00 0.01 0.00 71 1010.4
20260905070826 70 324 2.0 4.0 0.00 0.01 0.00 71 1010.4
20260905070323 71 5 1.0 3.0 0.00 0.01 0.00 71 1010.3
20260905065823 70 333 1.0 2.0 0.00 0.20 0.00 72 1010.4
20260905065321 71 307 0.0 1.0 0.00 0.20 0.00 71 1010.4
20260905064817 71 355 0.0 4.0 0.00 0.20 0.00 72 1010.4
20260905064314 71 344 1.0 4.0 0.00 0.20 0.00 71 1010.4
20260905063811 71 25 0.0 5.0 0.00 0.20 0.00 71 1010.4
20260905063328 71 317 2.0 8.0 0.00 0.20 0.00 72 1010.4
20260905062824 71 317 2.0 8.0 0.00 0.20 0.00 71 1010.5
20260905062326 71 297 1.0 2.0 0.00 0.20 0.00 72 1010.5
20260905061822 71 343 1.0 3.0 0.00 0.20 0.00 72 1010.5
20260905061320 71 327 0.0 3.0 0.00 0.20 0.00 71 1010.5
20260905060816 71 302 0.0 3.0 0.00 0.20 0.00 72 1010.5
20260905060313 71 314 1.0 3.0 0.00 0.20 0.00 71 1010.6
20260905055829 71 300 0.0 3.0 0.00 0.26 0.00 71 1010.6
20260905055326 71 300 1.0 3.0 0.00 0.26 0.00 71 1010.7
20260905054827 71 324 1.0 3.0 0.00 0.26 0.00 72 1010.8
20260905054323 71 328 2.0 3.0 0.00 0.26 0.00 72 1010.8
20260905053820 71 271 0.0 4.0 0.00 0.26 0.00 71 1010.8
20260905053317 71 269 1.0 4.0 0.00 0.26 0.00 71 1010.8
20260905052813 71 284 0.0 2.0 0.00 0.26 0.00 71 1010.8
20260905052311 71 309 0.0 3.0 0.00 0.26 0.00 72 1010.9
20260905051827 71 309 0.0 3.0 0.00 0.26 0.00 72 1011.0
20260905051328 71 292 0.0 3.0 0.00 0.26 0.00 73 1011.2
20260905050825 71 313 0.0 3.0 0.00 0.26 0.00 73 1011.2
20260905050322 71 268 1.0 3.0 0.00 0.26 0.00 73 1011.3
20260905045819 71 232 0.0 2.0 0.00 0.26 0.00 73 1011.3
20260905045316 71 206 1.0 2.0 0.00 0.26 0.00 72 1011.3
20260905044812 71 284 1.0 3.0 0.00 0.26 0.00 72 1011.3
20260905044330 72 273 1.0 3.0 0.00 0.26 0.00 72 1011.2
20260905043810 72 291 0.0 4.0 0.00 0.26 0.00 72 1011.2
20260905043327 72 285 0.0 5.0 0.00 0.26 0.00 72 1011.2
20260905042823 72 331 2.0 5.0 0.00 0.26 0.00 72 1011.3
20260905042321 72 346 1.0 4.0 0.00 0.26 0.00 72 1011.3
20260905041818 72 320 1.0 5.0 0.00 0.26 0.00 72 1011.3
20260905041315 72 324 2.0 5.0 0.00 0.26 0.00 71 1011.4
20260905040811 72 313 2.0 4.0 0.00 0.26 0.00 71 1011.3
20260905040312 72 327 2.0 3.0 0.00 0.26 0.00 71 1011.4
20260905035828 72 313 1.0 5.0 0.00 0.26 0.26 71 1011.4
20260905035325 72 337 2.0 5.0 0.00 0.26 0.26 71 1011.5
20260905034822 73 319 1.0 9.0 0.00 0.26 0.26 71 1011.4
20260905034320 73 339 2.0 9.0 0.00 0.26 0.26 70 1011.4
20260905033816 73 331 3.0 5.0 0.00 0.26 0.26 70 1011.4
20260905033313 73 265 3.0 5.0 0.00 0.26 0.26 70 1011.3
20260905032813 73 339 2.0 5.0 0.00 0.26 0.26 70 1011.4
20260905032311 73 279 3.0 5.0 0.00 0.26 0.26 70 1011.3
20260905031828 73 327 2.0 5.0 0.00 0.26 0.26 70 1011.3
20260905031324 73 323 2.0 6.0 0.00 0.26 0.26 69 1011.3
20260905030821 73 321 3.0 6.0 0.00 0.26 0.26 69 1011.3
20260905030317 73 274 2.0 5.0 0.00 0.26 0.26 70 1011.3
20260905025813 73 338 2.0 6.0 0.00 0.26 0.26 69 1011.3
20260905025314 73 290 0.0 6.0 0.00 0.26 0.26 69 1011.4
20260905024811 73 334 2.0 5.0 0.00 0.26 0.26 69 1011.3
20260905024327 73 315 4.0 5.0 0.00 0.26 0.26 69 1011.3
20260905023824 73 298 2.0 5.0 0.00 0.26 0.26 69 1011.2
20260905023321 73 343 1.0 5.0 0.00 0.26 0.26 69 1011.2
20260905022818 73 317 2.0 5.0 0.00 0.26 0.26 69 1011.1
20260905022316 73 333 2.0 6.0 0.00 0.26 0.26 70 1011.3
20260905021816 73 300 1.0 6.0 0.00 0.26 0.26 71 1011.4
20260905021312 73 327 2.0 5.0 0.00 0.26 0.26 71 1011.4
20260905020829 73 286 2.0 5.0 0.00 0.26 0.26 72 1011.3
20260905020326 72 302 1.0 4.0 0.00 0.26 0.26 72 1011.3
20260905015823 72 250 0.0 2.0 0.00 0.26 0.26 73 1011.3
20260905015320 73 258 1.0 3.0 0.00 0.26 0.26 73 1011.5
20260905014817 73 276 1.0 3.0 0.00 0.26 0.26 72 1011.4
20260905014318 73 290 0.0 2.0 0.00 0.26 0.26 72 1011.5
20260905013814 73 259 0.0 3.0 0.00 0.26 0.26 72 1011.5
20260905013311 73 338 1.0 4.0 0.00 0.26 0.26 73 1011.4
20260905012828 73 250 0.0 4.0 0.00 0.26 0.26 73 1011.4
20260905012325 73 280 1.0 3.0 0.00 0.26 0.26 72 1011.3
20260905011822 73 262 0.0 2.0 0.00 0.26 0.26 72 1011.3
20260905011319 73 313 1.0 4.0 0.00 0.26 0.26 72 1011.2
20260905010820 73 324 1.0 4.0 0.00 0.26 0.26 72 1011.3
20260905010317 73 289 0.0 4.0 0.00 0.26 0.26 72 1011.3
20260905005814 73 287 1.0 4.0 0.00 0.26 0.26 72 1011.2
20260905005311 73 287 1.0 4.0 0.00 0.26 0.26 72 1011.2
20260905004828 73 307 1.0 4.0 0.00 0.26 0.26 74 1011.2
20260905004326 73 323 0.0 0.0 0.00 0.26 0.26 74 1011.2
20260905003823 73 360 0.0 0.0 0.00 0.26 0.26 74 1011.2
20260905003324 73 328 0.0 0.0 0.00 0.26 0.26 74 1011.2
20260905002821 73 328 0.0 0.0 0.00 0.26 0.26 75 1011.3
20260905002319 73 328 0.0 0.0 0.00 0.26 0.26 75 1011.3
20260905001815 73 328 0.0 0.0 0.00 0.26 0.26 75 1011.3
20260905001314 74 328 0.0 1.0 0.00 0.26 0.26 75 1011.2
20260905000810 75 328 0.0 2.0 0.00 0.26 0.26 72 1011.0
20260905000311 75 327 0.0 2.0 0.00 0.26 0.26 69 1010.8